sat.trackr.live / text

‹ back to catalog

STARLINK-3458

NORAD 51758 · 2022-016AW

PAYLOAD ACTIVE UNKNOWN

§ Identity

Operator
Country
US
Launch date
2022-02-21
Launch site
AFETR
Launch vehicle
Mass (kg)
RCS (m²)

Purposes: comms

External: N2YO · Heavens-Above · Gunter

§ Orbital elements

Epoch: 2026-05-24T21:29:19.485888Z

Period
95.44 min
Inclination
53.2125°
Eccentricity
0.0001317
Mean motion
15.08853077 rev/d
Perigee alt
538.8 km
Apogee alt
540.6 km
Semi-major
6,917.8 km
B*
1.3361e-4
RAAN
326.9734°
Arg perigee
108.0469°
Mean anomaly
252.0666°
Rev number
23,635

§ Raw data

STARLINK-34581 51758U 22016AW  26144.89536442  .00001840  00000+0  13361-3 0  99942 51758  53.2125 326.9734 0001317 108.0469 252.0666 15.08853077236350

JSON: /api/v1/satellites/51758 · /tle

For live sub-satellite position, see the globe view (requires WebGL).

§ Visibility from observer

Set your observer location to see the next 7 days of passes ≥ 10°. The values pass through the URL so the page stays shareable.

No JS? Fill the form by hand. The geolocation button needs JavaScript.